Check out our new BloomSky Weather System.

Active alerts


No alerts


Thunder radar  blitzortung!


Rain radar more information rain snow radar


Visit our other weather sites:

Template documentation
and downloads

And another site



Weather Underground History page Text

Daily Summary for May 26, 2017 Units:  Metric    English   Both
« Previous Day
Next Day »
Daily Weekly Monthly Yearly Custom
  High: Low: Average:
Temperature: 32.4 °C 23.4 °C 27.5 °C
Dew Point: 25.2 °C 20.5 °C 23.6 °C
Humidity: 91 % 64 % 80 %
Wind Speed: 20.9 km/h 0 km/h 8.5 km/h
Wind Gust: 30.6 km/h - -
Wind:- - SSE
Pressure: 1012.1 hPa 1008.4 hPa -
Precipitation: 0 mm    
Historical Graphs
 
 
Tabular Data for May 26, 2017
Time Temperature Dew Point Pressure Wind Wind Speed Wind Gust Humidity Rainfall Rate (Hourly)
00:02 24 °C 20.5 °C 1008.7 hPa SSW 12.9 km/h 19.3 km/h 81 % 0 mm
00:07 23.9 °C 20.6 °C 1008.7 hPa South 6.4 km/h 20.9 km/h 82 % 0 mm
00:12 23.9 °C 20.6 °C 1008.7 hPa SSE 11.3 km/h 20.9 km/h 82 % 0 mm
00:17 23.9 °C 20.6 °C 1008.4 hPa SE 8 km/h 20.9 km/h 82 % 0 mm
00:22 23.8 °C 20.5 °C 1008.4 hPa ESE 6.4 km/h 19.3 km/h 82 % 0 mm
00:27 23.8 °C 20.7 °C 1008.4 hPa SE 16.1 km/h 17.7 km/h 83 % 0 mm
00:32 23.8 °C 20.7 °C 1008.4 hPa SE 9.7 km/h 20.9 km/h 83 % 0 mm
00:37 23.8 °C 20.7 °C 1008.4 hPa SE 8 km/h 20.9 km/h 83 % 0 mm
00:43 23.7 °C 20.6 °C 1008.4 hPa South 4.8 km/h 20.9 km/h 83 % 0 mm
00:48 23.7 °C 20.6 °C 1008.4 hPa East 6.4 km/h 19.3 km/h 83 % 0 mm
00:53 23.6 °C 20.7 °C 1008.4 hPa SSE 4.8 km/h 19.3 km/h 84 % 0 mm
00:58 23.6 °C 20.7 °C 1008.4 hPa SE 6.4 km/h 12.9 km/h 84 % 0 mm
01:03 23.6 °C 20.7 °C 1008.4 hPa SE 6.4 km/h 12.9 km/h 84 % 0 mm
01:08 23.6 °C 20.9 °C 1008.4 hPa SSE 9.7 km/h 12.9 km/h 85 % 0 mm
01:13 23.6 °C 20.9 °C 1008.4 hPa SSW 6.4 km/h 19.3 km/h 85 % 0 mm
01:18 23.6 °C 20.9 °C 1008.4 hPa SE 8 km/h 19.3 km/h 85 % 0 mm
01:23 23.5 °C 20.8 °C 1008.4 hPa SW 8 km/h 19.3 km/h 85 % 0 mm
01:28 23.4 °C 20.7 °C 1008.4 hPa SE 11.3 km/h 17.7 km/h 85 % 0 mm
01:34 23.4 °C 20.7 °C 1008.4 hPa SE 6.4 km/h 16.1 km/h 85 % 0 mm
01:39 23.4 °C 20.7 °C 1008.4 hPa SSW 4.8 km/h 14.5 km/h 85 % 0 mm
01:44 23.4 °C 20.9 °C 1008.4 hPa SSE 4.8 km/h 16.1 km/h 86 % 0 mm
01:49 23.4 °C 20.9 °C 1008.4 hPa SE 8 km/h 16.1 km/h 86 % 0 mm
01:54 23.4 °C 20.9 °C 1008.4 hPa SSW 8 km/h 16.1 km/h 86 % 0 mm
01:59 23.4 °C 20.9 °C 1008.4 hPa South 6.4 km/h 16.1 km/h 86 % 0 mm
02:04 23.4 °C 20.9 °C 1008.4 hPa South 6.4 km/h 16.1 km/h 86 % 0 mm
02:09 23.4 °C 20.9 °C 1008.4 hPa SSW 6.4 km/h 14.5 km/h 86 % 0 mm
02:14 23.5 °C 21 °C 1008.4 hPa SE 6.4 km/h 19.3 km/h 86 % 0 mm
02:19 23.5 °C 21 °C 1008.4 hPa South 3.2 km/h 19.3 km/h 86 % 0 mm
02:24 23.5 °C 21 °C 1008.4 hPa SE 8 km/h 19.3 km/h 86 % 0 mm
02:29 23.4 °C 20.9 °C 1008.4 hPa SSE 11.3 km/h 19.3 km/h 86 % 0 mm
02:34 23.5 °C 21.2 °C 1008.4 hPa SSW 6.4 km/h 19.3 km/h 87 % 0 mm
02:39 23.5 °C 21.2 °C 1008.4 hPa SSE 8 km/h 19.3 km/h 87 % 0 mm
02:44 23.5 °C 21.2 °C 1008.4 hPa SE 4.8 km/h 17.7 km/h 87 % 0 mm
02:49 23.5 °C 21.2 °C 1008.4 hPa SW 12.9 km/h 17.7 km/h 87 % 0 mm
02:54 23.5 °C 21.2 °C 1008.4 hPa South 8 km/h 17.7 km/h 87 % 0 mm
02:59 23.6 °C 21.5 °C 1008.4 hPa SSE 3.2 km/h 17.7 km/h 88 % 0 mm
03:04 23.6 °C 21.5 °C 1008.7 hPa South 11.3 km/h 16.1 km/h 88 % 0 mm
03:09 23.7 °C 21.6 °C 1008.7 hPa SSE 8 km/h 19.3 km/h 88 % 0 mm
03:14 23.7 °C 21.6 °C 1008.7 hPa SSE 4.8 km/h 19.3 km/h 88 % 0 mm
03:19 23.7 °C 21.6 °C 1008.7 hPa SW 8 km/h 19.3 km/h 88 % 0 mm
03:24 23.7 °C 21.6 °C 1008.7 hPa SSE 6.4 km/h 14.5 km/h 88 % 0 mm
03:29 23.7 °C 21.6 °C 1008.7 hPa SSE 11.3 km/h 16.1 km/h 88 % 0 mm
03:34 23.7 °C 21.6 °C 1008.7 hPa SSE 6.4 km/h 16.1 km/h 88 % 0 mm
03:39 23.7 °C 21.6 °C 1009 hPa SSE 1.6 km/h 20.9 km/h 88 % 0 mm
03:44 23.7 °C 21.6 °C 1009 hPa South 8 km/h 20.9 km/h 88 % 0 mm
03:49 23.8 °C 21.9 °C 1009 hPa SW 9.7 km/h 20.9 km/h 89 % 0 mm
03:54 23.8 °C 21.9 °C 1009 hPa SSE 9.7 km/h 14.5 km/h 89 % 0 mm
03:59 23.8 °C 21.9 °C 1009.4 hPa ESE 4.8 km/h 14.5 km/h 89 % 0 mm
04:04 23.8 °C 21.9 °C 1009.4 hPa South 8 km/h 16.1 km/h 89 % 0 mm
04:10 23.8 °C 21.9 °C 1009 hPa SSE 4.8 km/h 16.1 km/h 89 % 0 mm
04:14 23.9 °C 22 °C 1009.4 hPa SSW 4.8 km/h 16.1 km/h 89 % 0 mm
04:20 23.9 °C 22 °C 1009.4 hPa SSW 4.8 km/h 12.9 km/h 89 % 0 mm
04:25 23.9 °C 22 °C 1009.4 hPa SE 8 km/h 14.5 km/h 89 % 0 mm
04:30 24 °C 22.1 °C 1009 hPa SE 6.4 km/h 16.1 km/h 89 % 0 mm
04:35 24.1 °C 22.2 °C 1009 hPa SE 6.4 km/h 16.1 km/h 89 % 0 mm
04:40 24.1 °C 22.2 °C 1009.4 hPa SSE 3.2 km/h 14.5 km/h 89 % 0 mm
04:45 24.1 °C 22.2 °C 1009.4 hPa SW 3.2 km/h 11.3 km/h 89 % 0 mm
04:50 24.1 °C 22.2 °C 1009.4 hPa SSE 4.8 km/h 11.3 km/h 89 % 0 mm
04:55 24.1 °C 22.2 °C 1009.4 hPa South 6.4 km/h 14.5 km/h 89 % 0 mm
05:00 24.1 °C 22.2 °C 1009.4 hPa SSE 3.2 km/h 14.5 km/h 89 % 0 mm
05:05 24 °C 22.1 °C 1009.4 hPa SE 6.4 km/h 14.5 km/h 89 % 0 mm
05:10 24 °C 22.1 °C 1009.4 hPa South 3.2 km/h 11.3 km/h 89 % 0 mm
05:15 24 °C 22.1 °C 1009.4 hPa SSE 4.8 km/h 12.9 km/h 89 % 0 mm
05:20 24 °C 22.3 °C 1009.7 hPa South 3.2 km/h 12.9 km/h 90 % 0 mm
05:25 23.9 °C 22.2 °C 1009.7 hPa SE 4.8 km/h 12.9 km/h 90 % 0 mm
05:30 24 °C 22.3 °C 1009.7 hPa SSE 9.7 km/h 11.3 km/h 90 % 0 mm
05:35 24 °C 22.3 °C 1009.7 hPa SSE 3.2 km/h 11.3 km/h 90 % 0 mm
05:40 24.1 °C 22.4 °C 1009.7 hPa SSE 3.2 km/h 11.3 km/h 90 % 0 mm
05:45 24.1 °C 22.4 °C 1009.7 hPa ESE 3.2 km/h 14.5 km/h 90 % 0 mm
05:50 24.1 °C 22.4 °C 1009.7 hPa SSE 6.4 km/h 14.5 km/h 90 % 0 mm
05:55 24.1 °C 22.4 °C 1009.7 hPa SE 3.2 km/h 14.5 km/h 90 % 0 mm
06:00 24.1 °C 22.4 °C 1009.7 hPa SE 3.2 km/h 14.5 km/h 90 % 0 mm
06:05 24.1 °C 22.4 °C 1010 hPa SSE 3.2 km/h 9.7 km/h 90 % 0 mm
06:10 24.2 °C 22.5 °C 1010 hPa SSW 8 km/h 9.7 km/h 90 % 0 mm
06:15 24.2 °C 22.5 °C 1010 hPa South 4.8 km/h 9.7 km/h 90 % 0 mm
06:21 24.2 °C 22.5 °C 1010 hPa SE 1.6 km/h 8 km/h 90 % 0 mm
06:26 24.2 °C 22.5 °C 1010 hPa South 8 km/h 8 km/h 90 % 0 mm
06:31 24.2 °C 22.6 °C 1010.4 hPa Calm   8 km/h 91 % 0 mm
06:36 24.2 °C 22.6 °C 1010.4 hPa SSE 3.2 km/h 8 km/h 91 % 0 mm
06:41 24.3 °C 22.7 °C 1010.4 hPa SSE 1.6 km/h 9.7 km/h 91 % 0 mm
06:46 24.3 °C 22.7 °C 1010.4 hPa SW 6.4 km/h 9.7 km/h 91 % 0 mm
06:51 24.3 °C 22.7 °C 1010.4 hPa South 4.8 km/h 9.7 km/h 91 % 0 mm
06:56 24.3 °C 22.7 °C 1010.4 hPa SE 3.2 km/h 9.7 km/h 91 % 0 mm
07:01 24.4 °C 22.8 °C 1010.4 hPa SE 3.2 km/h 11.3 km/h 91 % 0 mm
07:06 24.4 °C 22.8 °C 1010.4 hPa South 9.7 km/h 11.3 km/h 91 % 0 mm
07:11 24.4 °C 22.8 °C 1010.4 hPa South 4.8 km/h 11.3 km/h 91 % 0 mm
07:16 24.4 °C 22.8 °C 1010.4 hPa South 3.2 km/h 12.9 km/h 91 % 0 mm
07:21 24.5 °C 22.9 °C 1010.4 hPa SSE 6.4 km/h 12.9 km/h 91 % 0 mm
07:26 24.6 °C 23 °C 1010.7 hPa ESE 3.2 km/h 12.9 km/h 91 % 0 mm
07:31 24.6 °C 23 °C 1010.7 hPa SSE 4.8 km/h 9.7 km/h 91 % 0 mm
07:36 24.6 °C 23 °C 1010.7 hPa SE 4.8 km/h 9.7 km/h 91 % 0 mm
07:41 24.6 °C 23 °C 1010.7 hPa South 4.8 km/h 9.7 km/h 91 % 0 mm
07:46 24.7 °C 23.1 °C 1011.1 hPa SSE 3.2 km/h 9.7 km/h 91 % 0 mm
07:51 24.8 °C 23 °C 1011.1 hPa SSE 3.2 km/h 9.7 km/h 90 % 0 mm
07:56 24.9 °C 23.1 °C 1011.1 hPa SSE 4.8 km/h 12.9 km/h 90 % 0 mm
08:01 24.9 °C 23.1 °C 1011.1 hPa SSE 3.2 km/h 12.9 km/h 90 % 0 mm
08:06 25 °C 23.2 °C 1011.1 hPa SSE 3.2 km/h 12.9 km/h 90 % 0 mm
08:11 25.1 °C 23.2 °C 1011.1 hPa SSE 4.8 km/h 9.7 km/h 89 % 0 mm
08:16 25.2 °C 23.3 °C 1011.4 hPa South 4.8 km/h 11.3 km/h 89 % 0 mm
08:21 25.2 °C 23.3 °C 1011.4 hPa SSE 6.4 km/h 11.3 km/h 89 % 0 mm
08:26 25.3 °C 23.4 °C 1011.4 hPa SSE 9.7 km/h 12.9 km/h 89 % 0 mm
08:31 25.4 °C 23.5 °C 1011.4 hPa ESE 4.8 km/h 16.1 km/h 89 % 0 mm
08:36 25.4 °C 23.3 °C 1011.4 hPa ESE 6.4 km/h 16.1 km/h 88 % 0 mm
08:41 25.6 °C 23.5 °C 1011.4 hPa ESE 4.8 km/h 16.1 km/h 88 % 0 mm
08:46 25.6 °C 23.5 °C 1011.4 hPa SSE 6.4 km/h 12.9 km/h 88 % 0 mm
08:51 25.7 °C 23.6 °C 1011.7 hPa SE 11.3 km/h 11.3 km/h 88 % 0 mm
08:56 25.8 °C 23.5 °C 1011.4 hPa SE 3.2 km/h 14.5 km/h 87 % 0 mm
09:01 26 °C 23.7 °C 1011.7 hPa SSW 6.4 km/h 14.5 km/h 87 % 0 mm
09:06 26.1 °C 23.8 °C 1011.7 hPa South 14.5 km/h 14.5 km/h 87 % 0 mm
09:11 26.1 °C 23.6 °C 1011.7 hPa SE 8 km/h 19.3 km/h 86 % 0 mm
09:16 26.1 °C 23.6 °C 1011.4 hPa South 4.8 km/h 19.3 km/h 86 % 0 mm
09:21 26.2 °C 23.7 °C 1011.7 hPa South 8 km/h 19.3 km/h 86 % 0 mm
09:26 26.2 °C 23.7 °C 1011.7 hPa South 4.8 km/h 19.3 km/h 86 % 0 mm
09:31 26.3 °C 23.8 °C 1011.7 hPa SSW 8 km/h 19.3 km/h 86 % 0 mm
09:36 26.4 °C 23.9 °C 1011.7 hPa SSE 11.3 km/h 19.3 km/h 86 % 0 mm
09:42 26.6 °C 23.9 °C 1011.7 hPa ESE 12.9 km/h 19.3 km/h 85 % 0 mm
09:47 26.7 °C 24 °C 1012.1 hPa SSW 9.7 km/h 19.3 km/h 85 % 0 mm
09:52 26.7 °C 23.8 °C 1011.7 hPa SSE 8 km/h 19.3 km/h 84 % 0 mm
09:57 26.7 °C 24 °C 1011.7 hPa South 9.7 km/h 17.7 km/h 85 % 0 mm
10:02 26.9 °C 24 °C 1011.7 hPa SE 4.8 km/h 16.1 km/h 84 % 0 mm
10:07 27.1 °C 24.2 °C 1011.7 hPa South 8 km/h 17.7 km/h 84 % 0 mm
10:12 27.1 °C 24 °C 1011.7 hPa South 6.4 km/h 17.7 km/h 83 % 0 mm
10:17 27.2 °C 24.1 °C 1012.1 hPa SSE 12.9 km/h 17.7 km/h 83 % 0 mm
10:22 27.2 °C 23.9 °C 1012.1 hPa SSE 6.4 km/h 17.7 km/h 82 % 0 mm
10:27 27.2 °C 23.9 °C 1012.1 hPa SSW 6.4 km/h 17.7 km/h 82 % 0 mm
10:32 27.3 °C 24 °C 1012.1 hPa SSW 16.1 km/h 17.7 km/h 82 % 0 mm
10:37 27.5 °C 24.1 °C 1012.1 hPa SSW 8 km/h 16.1 km/h 82 % 0 mm
10:42 27.6 °C 23.8 °C 1012.1 hPa SSE 8 km/h 16.1 km/h 80 % 0 mm
10:47 27.8 °C 24.2 °C 1012.1 hPa SE 4.8 km/h 17.7 km/h 81 % 0 mm
10:52 28.1 °C 24.1 °C 1012.1 hPa SSW 6.4 km/h 17.7 km/h 79 % 0 mm
10:57 28.3 °C 24.1 °C 1011.7 hPa SSW 8 km/h 17.7 km/h 78 % 0 mm
11:02 28.4 °C 24.2 °C 1012.1 hPa South 9.7 km/h 17.7 km/h 78 % 0 mm
11:04 28.6 °C 24.4 °C 1011.7 hPa SE 14.5 km/h 17.7 km/h 78 % 0 mm
11:09 28.8 °C 24.1 °C 1012.1 hPa SE 11.3 km/h 20.9 km/h 76 % 0 mm
11:14 28.9 °C 24.2 °C 1012.1 hPa SSE 6.4 km/h 20.9 km/h 76 % 0 mm
11:19 29.1 °C 24.2 °C 1012.1 hPa South 6.4 km/h 20.9 km/h 75 % 0 mm
11:24 29.2 °C 24.3 °C 1011.7 hPa SSE 4.8 km/h 19.3 km/h 75 % 0 mm
11:29 29.1 °C 24 °C 1012.1 hPa SSE 4.8 km/h 19.3 km/h 74 % 0 mm
11:34 29.2 °C 24.3 °C 1012.1 hPa SSW 12.9 km/h 20.9 km/h 75 % 0 mm
11:39 29.2 °C 24.3 °C 1012.1 hPa SSW 9.7 km/h 20.9 km/h 75 % 0 mm
11:44 29.3 °C 24.2 °C 1012.1 hPa SSE 3.2 km/h 20.9 km/h 74 % 0 mm
11:49 29.7 °C 24.6 °C 1011.7 hPa South 4.8 km/h 17.7 km/h 74 % 0 mm
11:54 29.8 °C 24.2 °C 1012.1 hPa SSW 11.3 km/h 17.7 km/h 72 % 0 mm
11:59 29.8 °C 24.2 °C 1011.7 hPa SSE 6.4 km/h 16.1 km/h 72 % 0 mm
12:00 29.9 °C 24.3 °C 1012.1 hPa SSW 8 km/h 16.1 km/h 72 % 0 mm
12:05 30.2 °C 24.6 °C 1012.1 hPa SW 8 km/h 16.1 km/h 72 % 0 mm
12:10 30.8 °C 24.4 °C 1011.7 hPa ESE 12.9 km/h 17.7 km/h 69 % 0 mm
12:15 31.1 °C 24.5 °C 1011.7 hPa South 8 km/h 17.7 km/h 68 % 0 mm
12:20 31.3 °C 24.4 °C 1011.7 hPa SSE 8 km/h 17.7 km/h 67 % 0 mm
12:25 31.6 °C 24.5 °C 1011.7 hPa SE 9.7 km/h 17.7 km/h 66 % 0 mm
12:30 31.2 °C 24.3 °C 1011.7 hPa SE 9.7 km/h 20.9 km/h 67 % 0 mm
12:33 31.1 °C 24.2 °C 1011.7 hPa SW 6.4 km/h 20.9 km/h 67 % 0 mm
12:38 31.2 °C 24.6 °C 1011.7 hPa South 14.5 km/h 20.9 km/h 68 % 0 mm
12:43 31.2 °C 24.6 °C 1011.7 hPa SSE 9.7 km/h 20.9 km/h 68 % 0 mm
12:48 31.5 °C 24.9 °C 1011.7 hPa SSW 11.3 km/h 20.9 km/h 68 % 0 mm
12:53 31.4 °C 24.3 °C 1011.7 hPa SSE 8 km/h 20.9 km/h 66 % 0 mm
12:58 31.3 °C 24.2 °C 1011.7 hPa South 9.7 km/h 19.3 km/h 66 % 0 mm
13:03 31.4 °C 24.5 °C 1011.7 hPa SSW 8 km/h 22.5 km/h 67 % 0 mm
13:08 31.5 °C 24.6 °C 1011.7 hPa SSW 16.1 km/h 22.5 km/h 67 % 0 mm
13:13 31.4 °C 24 °C 1011.4 hPa South 8 km/h 22.5 km/h 65 % 0 mm
13:18 31.7 °C 24.6 °C 1011.7 hPa South 16.1 km/h 27.4 km/h 66 % 0 mm
13:23 31.7 °C 24.6 °C 1011.4 hPa SE 4.8 km/h 27.4 km/h 66 % 0 mm
13:28 31.8 °C 24.7 °C 1011.4 hPa SE 16.1 km/h 27.4 km/h 66 % 0 mm
13:34 31.7 °C 24.8 °C 1011.4 hPa South 9.7 km/h 20.9 km/h 67 % 0 mm
13:39 32 °C 24.6 °C 1011.1 hPa SE 17.7 km/h 20.9 km/h 65 % 0 mm
13:44 32.1 °C 24.9 °C 1011.1 hPa SE 4.8 km/h 27.4 km/h 66 % 0 mm
13:49 32.1 °C 24.9 °C 1011.1 hPa South 12.9 km/h 27.4 km/h 66 % 0 mm
13:54 31.9 °C 24.5 °C 1011.1 hPa SSE 9.7 km/h 27.4 km/h 65 % 0 mm
13:59 31.9 °C 24.8 °C 1011.1 hPa SSW 17.7 km/h 24.1 km/h 66 % 0 mm
14:04 32.4 °C 25 °C 1010.7 hPa SSE 11.3 km/h 24.1 km/h 65 % 0 mm
14:09 32.4 °C 25 °C 1010.7 hPa SSE 14.5 km/h 22.5 km/h 65 % 0 mm
14:14 32.2 °C 25 °C 1010.7 hPa SE 19.3 km/h 30.6 km/h 66 % 0 mm
14:19 32.2 °C 24.5 °C 1010.7 hPa South 12.9 km/h 30.6 km/h 64 % 0 mm
14:24 32.2 °C 24.8 °C 1010.7 hPa SSE 9.7 km/h 30.6 km/h 65 % 0 mm
14:34 32.4 °C 24.7 °C 1010.7 hPa SE 12.9 km/h 24.1 km/h 64 % 0 mm
14:39 32.3 °C 24.9 °C 1010.7 hPa SSW 9.7 km/h 22.5 km/h 65 % 0 mm
14:44 32.1 °C 24.9 °C 1010.7 hPa South 12.9 km/h 22.5 km/h 66 % 0 mm
14:49 32.2 °C 24.8 °C 1010.7 hPa South 17.7 km/h 20.9 km/h 65 % 0 mm
14:54 32.1 °C 24.7 °C 1010.7 hPa South 8 km/h 20.9 km/h 65 % 0 mm
14:59 32.3 °C 24.6 °C 1010.7 hPa SE 19.3 km/h 24.1 km/h 64 % 0 mm
15:04 32.1 °C 24.4 °C 1010.7 hPa SSE 12.9 km/h 24.1 km/h 64 % 0 mm
15:09 31.9 °C 24.8 °C 1010.7 hPa SE 11.3 km/h 24.1 km/h 66 % 0 mm
15:14 31.9 °C 24.5 °C 1010.7 hPa South 20.9 km/h 22.5 km/h 65 % 0 mm
15:19 31.8 °C 24.7 °C 1010.7 hPa SE 6.4 km/h 27.4 km/h 66 % 0 mm
15:22 32 °C 24.8 °C 1010.7 hPa SSE 12.9 km/h 27.4 km/h 66 % 0 mm
15:27 32.2 °C 25 °C 1010.7 hPa SSE 16.1 km/h 27.4 km/h 66 % 0 mm
15:32 32.1 °C 24.7 °C 1010.7 hPa South 12.9 km/h 25.7 km/h 65 % 0 mm
15:37 31.8 °C 24.7 °C 1010.7 hPa SSW 16.1 km/h 25.7 km/h 66 % 0 mm
15:42 31.8 °C 24.4 °C 1010.4 hPa SSW 17.7 km/h 20.9 km/h 65 % 0 mm
15:47 31.8 °C 24.7 °C 1010.4 hPa SSW 4.8 km/h 25.7 km/h 66 % 0 mm
15:52 32.3 °C 24.6 °C 1010.4 hPa SSW 12.9 km/h 25.7 km/h 64 % 0 mm
15:57 32.3 °C 24.6 °C 1010.4 hPa SE 12.9 km/h 25.7 km/h 64 % 0 mm
16:02 31.9 °C 24.8 °C 1010.4 hPa SE 12.9 km/h 25.7 km/h 66 % 0 mm
16:07 31.9 °C 24.8 °C 1010.4 hPa South 9.7 km/h 25.7 km/h 66 % 0 mm
16:12 31.8 °C 24.7 °C 1010.4 hPa SW 17.7 km/h 25.7 km/h 66 % 0 mm
16:17 31.7 °C 24.8 °C 1010.4 hPa South 11.3 km/h 24.1 km/h 67 % 0 mm
16:22 31.9 °C 24.8 °C 1010 hPa South 8 km/h 24.1 km/h 66 % 0 mm
16:27 31.8 °C 24.7 °C 1010 hPa SSE 14.5 km/h 22.5 km/h 66 % 0 mm
16:32 31.6 °C 25 °C 1010.4 hPa SSE 9.7 km/h 22.5 km/h 68 % 0 mm
16:37 31.4 °C 24.8 °C 1010 hPa South 12.9 km/h 22.5 km/h 68 % 0 mm
16:42 31.4 °C 24.8 °C 1010 hPa South 9.7 km/h 19.3 km/h 68 % 0 mm
16:47 31.7 °C 24.8 °C 1010 hPa South 17.7 km/h 17.7 km/h 67 % 0 mm
16:52 31.4 °C 24.5 °C 1010 hPa SSE 9.7 km/h 24.1 km/h 67 % 0 mm
16:57 31.3 °C 24.7 °C 1010 hPa South 9.7 km/h 24.1 km/h 68 % 0 mm
17:02 31.2 °C 24.6 °C 1010 hPa SSE 6.4 km/h 24.1 km/h 68 % 0 mm
17:07 31.1 °C 24.7 °C 1010 hPa SW 14.5 km/h 24.1 km/h 69 % 0 mm
17:13 30.9 °C 24.5 °C 1010 hPa South 16.1 km/h 24.1 km/h 69 % 0 mm
17:17 31.1 °C 25 °C 1010 hPa South 11.3 km/h 22.5 km/h 70 % 0 mm
17:22 31.3 °C 24.9 °C 1010 hPa SSW 11.3 km/h 22.5 km/h 69 % 0 mm
17:28 31.2 °C 24.8 °C 1010 hPa South 8 km/h 22.5 km/h 69 % 0 mm
17:33 31.2 °C 25.1 °C 1010 hPa SW 11.3 km/h 20.9 km/h 70 % 0 mm
17:38 30.9 °C 25 °C 1010 hPa SE 16.1 km/h 20.9 km/h 71 % 0 mm
17:43 30.7 °C 25.1 °C 1010 hPa SW 6.4 km/h 24.1 km/h 72 % 0 mm
17:48 30.6 °C 25 °C 1010.4 hPa South 6.4 km/h 24.1 km/h 72 % 0 mm
17:53 30.6 °C 25 °C 1010.4 hPa South 6.4 km/h 24.1 km/h 72 % 0 mm
17:58 30.7 °C 25.1 °C 1010.4 hPa SE 9.7 km/h 19.3 km/h 72 % 0 mm
18:03 30.6 °C 25 °C 1010.4 hPa SSE 8 km/h 17.7 km/h 72 % 0 mm
18:08 30.4 °C 25 °C 1010 hPa SE 9.7 km/h 19.3 km/h 73 % 0 mm
18:13 30.6 °C 25.2 °C 1010 hPa SSE 11.3 km/h 19.3 km/h 73 % 0 mm
18:18 30.6 °C 25 °C 1010 hPa SSE 11.3 km/h 19.3 km/h 72 % 0 mm
18:23 30.4 °C 25 °C 1010 hPa SE 12.9 km/h 19.3 km/h 73 % 0 mm
18:28 30.3 °C 24.9 °C 1010 hPa SSE 8 km/h 19.3 km/h 73 % 0 mm
18:33 30.2 °C 25 °C 1010 hPa ESE 9.7 km/h 19.3 km/h 74 % 0 mm
18:38 30.1 °C 25 °C 1010.4 hPa SSW 9.7 km/h 17.7 km/h 74 % 0 mm
18:43 29.9 °C 25 °C 1010 hPa East 8 km/h 19.3 km/h 75 % 0 mm
18:48 29.9 °C 25 °C 1010 hPa SE 12.9 km/h 19.3 km/h 75 % 0 mm
18:53 29.8 °C 24.9 °C 1010 hPa SSE 8 km/h 19.3 km/h 75 % 0 mm
18:58 29.7 °C 24.8 °C 1010.4 hPa SSE 8 km/h 19.3 km/h 75 % 0 mm
19:03 29.7 °C 24.8 °C 1010.4 hPa SSE 6.4 km/h 20.9 km/h 75 % 0 mm
19:08 29.6 °C 24.9 °C 1010 hPa South 9.7 km/h 20.9 km/h 76 % 0 mm
19:13 29.5 °C 24.8 °C 1010.4 hPa SSE 8 km/h 20.9 km/h 76 % 0 mm
19:18 29.4 °C 24.9 °C 1010 hPa SE 8 km/h 19.3 km/h 77 % 0 mm
19:19 29.4 °C 24.9 °C 1010 hPa SSE 6.4 km/h 19.3 km/h 77 % 0 mm
19:24 29.4 °C 24.9 °C 1010 hPa South 12.9 km/h 19.3 km/h 77 % 0 mm
19:29 29.3 °C 24.8 °C 1010.4 hPa SE 9.7 km/h 19.3 km/h 77 % 0 mm
19:33 29.3 °C 25.1 °C 1010.4 hPa SSE 6.4 km/h 17.7 km/h 78 % 0 mm
19:38 29.2 °C 25 °C 1010.7 hPa ESE 11.3 km/h 17.7 km/h 78 % 0 mm
19:43 29.2 °C 25 °C 1010.7 hPa SE 8 km/h 17.7 km/h 78 % 0 mm
19:48 29.1 °C 25.1 °C 1010.7 hPa SSE 3.2 km/h 17.7 km/h 79 % 0 mm
19:54 28.9 °C 24.9 °C 1010.7 hPa SSE 12.9 km/h 17.7 km/h 79 % 0 mm
19:59 28.8 °C 24.8 °C 1010.7 hPa SSE 14.5 km/h 20.9 km/h 79 % 0 mm
20:04 28.8 °C 25 °C 1010.4 hPa SE 3.2 km/h 20.9 km/h 80 % 0 mm
20:09 28.7 °C 24.9 °C 1010.7 hPa ESE 16.1 km/h 20.9 km/h 80 % 0 mm
20:14 28.6 °C 25 °C 1010.7 hPa SE 8 km/h 20.9 km/h 81 % 0 mm
20:19 28.5 °C 24.9 °C 1011.1 hPa ESE 11.3 km/h 20.9 km/h 81 % 0 mm
20:24 28.4 °C 25 °C 1011.1 hPa SE 8 km/h 20.9 km/h 82 % 0 mm
20:29 28.3 °C 24.9 °C 1011.1 hPa SE 8 km/h 17.7 km/h 82 % 0 mm
20:34 28.2 °C 24.8 °C 1011.1 hPa SE 12.9 km/h 17.7 km/h 82 % 0 mm
20:39 28.2 °C 24.8 °C 1011.1 hPa SSE 9.7 km/h 17.7 km/h 82 % 0 mm
20:44 28.2 °C 25 °C 1011.1 hPa SE 6.4 km/h 17.7 km/h 83 % 0 mm
20:54 28.1 °C 24.9 °C 1011.1 hPa SSE 8 km/h 19.3 km/h 83 % 0 mm
20:59 28 °C 24.8 °C 1010.7 hPa SE 8 km/h 19.3 km/h 83 % 0 mm
21:04 27.9 °C 24.7 °C 1010.7 hPa SE 9.7 km/h 19.3 km/h 83 % 0 mm
21:09 27.9 °C 24.9 °C 1011.1 hPa South 6.4 km/h 20.9 km/h 84 % 0 mm
21:14 27.8 °C 24.8 °C 1011.1 hPa SE 9.7 km/h 20.9 km/h 84 % 0 mm
21:19 27.7 °C 24.7 °C 1011.1 hPa SE 6.4 km/h 20.9 km/h 84 % 0 mm
21:24 27.7 °C 24.9 °C 1011.1 hPa ESE 14.5 km/h 17.7 km/h 85 % 0 mm
21:29 27.7 °C 24.9 °C 1011.1 hPa ESE 8 km/h 17.7 km/h 85 % 0 mm
21:34 27.6 °C 24.8 °C 1011.1 hPa East 9.7 km/h 17.7 km/h 85 % 0 mm
21:39 27.6 °C 24.8 °C 1011.1 hPa SSE 8 km/h 17.7 km/h 85 % 0 mm
21:44 27.5 °C 24.7 °C 1011.1 hPa SSE 8 km/h 19.3 km/h 85 % 0 mm
21:49 27.5 °C 24.7 °C 1011.1 hPa SE 8 km/h 20.9 km/h 85 % 0 mm
21:54 27.4 °C 24.8 °C 1011.1 hPa SSE 9.7 km/h 20.9 km/h 86 % 0 mm
21:59 27.4 °C 24.8 °C 1011.4 hPa South 8 km/h 20.9 km/h 86 % 0 mm
22:04 27.3 °C 24.7 °C 1011.4 hPa SSE 11.3 km/h 19.3 km/h 86 % 0 mm
22:09 27.3 °C 24.7 °C 1011.4 hPa SE 8 km/h 19.3 km/h 86 % 0 mm
22:14 27.3 °C 24.7 °C 1011.4 hPa East 12.9 km/h 17.7 km/h 86 % 0 mm
22:19 27.3 °C 24.7 °C 1011.7 hPa SSE 11.3 km/h 17.7 km/h 86 % 0 mm
22:24 27.4 °C 24.8 °C 1011.7 hPa SE 4.8 km/h 17.7 km/h 86 % 0 mm
22:29 27.3 °C 24.7 °C 1011.7 hPa South 4.8 km/h 17.7 km/h 86 % 0 mm
22:34 27.3 °C 24.7 °C 1011.7 hPa SSE 8 km/h 17.7 km/h 86 % 0 mm
22:39 27.3 °C 24.7 °C 1011.7 hPa South 4.8 km/h 22.5 km/h 86 % 0 mm
22:44 27.3 °C 24.9 °C 1011.7 hPa SE 6.4 km/h 22.5 km/h 87 % 0 mm
22:49 27.3 °C 24.9 °C 1011.7 hPa SSW 4.8 km/h 22.5 km/h 87 % 0 mm
22:54 27.3 °C 24.9 °C 1011.7 hPa South 8 km/h 17.7 km/h 87 % 0 mm
22:59 27.3 °C 24.9 °C 1011.7 hPa SSE 4.8 km/h 19.3 km/h 87 % 0 mm
23:04 27.2 °C 24.8 °C 1011.7 hPa SSE 4.8 km/h 19.3 km/h 87 % 0 mm
23:09 27.2 °C 24.8 °C 1011.7 hPa East 11.3 km/h 19.3 km/h 87 % 0 mm
23:14 27.3 °C 24.9 °C 1011.7 hPa SE 12.9 km/h 16.1 km/h 87 % 0 mm
23:19 27.2 °C 24.8 °C 1011.7 hPa SE 11.3 km/h 19.3 km/h 87 % 0 mm
23:24 27.2 °C 25 °C 1012.1 hPa ENE 4.8 km/h 19.3 km/h 88 % 0 mm
23:29 27.2 °C 25 °C 1012.1 hPa South 8 km/h 19.3 km/h 88 % 0 mm
23:34 27.2 °C 25 °C 1012.1 hPa SSE 8 km/h 19.3 km/h 88 % 0 mm
23:39 27.2 °C 25 °C 1012.1 hPa SSW 11.3 km/h 19.3 km/h 88 % 0 mm
23:44 27.1 °C 24.9 °C 1011.7 hPa ESE 11.3 km/h 19.3 km/h 88 % 0 mm
23:49 27.1 °C 24.9 °C 1011.7 hPa SE 17.7 km/h 19.3 km/h 88 % 0 mm
23:54 27.1 °C 24.9 °C 1011.7 hPa ESE 8 km/h 17.7 km/h 88 % 0 mm
23:59 27.1 °C 24.9 °C 1011.7 hPa South 9.7 km/h 17.7 km/h 88 % 0 mm
Spring, Texas: Villages of Bridgestone
Compliments of Weather Underground - 2.75 mb

Script developed by  Jim McMurry - jmcmurry@mwt.net Adapted for the template by  Wim van der Kuil - Leuven-Template.eu

You find our weather info also at:

UK Metoffice

WeatherCloud

Weather Underground

Mid-South Weather Network

AWEKAS

Citizen Weather Observer Program (CWOP)

HAMweather, WeatherForYou, PWS Weather

Equipment we use:

Weather-station
Davis Vantage Vue

Weather-program
Meteohub

Weather-server
Debian 7.9 x86 (Guest)

Provider
DreamHost

Davis Vantage Vue

Meteohub

Debian 7.9 x86 (Guest)

DreamHost